Weather History for Madison, MN

Change the Weather History Date:

Monday, January 20, 2014

  Actual Average (KAQP) Record (KAQP)
Temperature  
Mean Temperature 13 °F -  
Max Temperature 33 °F 17 °F 39 °F (2007)
Min Temperature -7 °F 1 °F -20 °F (2008)
Degree Days  
Heating Degree Days 52    
Moisture  
Dew Point 9 °F    
Average Humidity 81    
Maximum Humidity 100    
Minimum Humidity 65    
Precipitation  
Precipitation 0.00 in - - ()
Sea Level Pressure  
Sea Level Pressure 30.14 in    
Wind  
Wind Speed 12 mph (NNW)    
Max Wind Speed 30 mph    
Max Gust Speed 38 mph    
Visibility 6 miles    
Events Snow    
Averages and records for this station are not official NWS values.
T = Trace of Precipitation, MM = Missing Value Source: NWS Daily Summary

Daily Weather History Graph

Daily Weather History Graph

Search for Another Location

Airport:

Trip Planner

Search our weather history database for the weather conditions in past years. The results will help you decide how hot, cold, wet, or windy it might be!

Date:

Astronomy

Jan. 20, 2014 Rise Set
Actual Time 7:55 AM CST 5:16 PM CST
Civil Twilight 7:23 AM CST 5:48 PM CST
Nautical Twilight 6:47 AM CST 6:24 PM CST
Astronomical Twilight 6:12 AM CST 6:59 PM CST
Moon 10:06 PM CST 9:43 AM CST
Length of Visible Light 10h 24m
Length of Day
9h 20m
Waning Gibbous, 82% of the Moon is Illuminated
Jan 20
Waning Gibbous
Jan 23
Last Quarter
Jan 30
New
Feb 6
First Quarter
Feb 14
Full

Hourly Weather History & Observations

Time (CST) Temp. Windchill Dew Point Humidity Pressure Visibility Wind Dir Wind Speed Gust Speed Precip Events Conditions
12:14 AM 26.6 °F - 24.8 °F 93% 29.77 in 7.0 mi Calm Calm - N/A   Clear
12:33 AM 24.8 °F 19.1 °F 24.8 °F 100% 29.78 in 7.0 mi WNW 4.6 mph - N/A   Scattered Clouds
12:54 AM 28.4 °F 24.6 °F 28.4 °F 100% 29.78 in 10.0 mi WNW 3.5 mph - N/A   Scattered Clouds
1:14 AM 28.4 °F 22.2 °F 28.4 °F 100% 29.78 in 10.0 mi West 5.8 mph - N/A   Clear
1:33 AM 28.4 °F 24.6 °F 26.6 °F 93% 29.78 in 10.0 mi West 3.5 mph - N/A   Scattered Clouds
1:54 AM 30.2 °F 25.4 °F 28.4 °F 93% 29.78 in 10.0 mi West 4.6 mph - N/A   Scattered Clouds
2:14 AM 30.2 °F 22.6 °F 28.4 °F 93% 29.79 in 10.0 mi West 8.1 mph - N/A   Scattered Clouds
2:33 AM 32.0 °F 24.8 °F 28.4 °F 87% 29.80 in 10.0 mi West 8.1 mph - N/A   Scattered Clouds
2:54 AM 33.8 °F 27.0 °F 28.4 °F 81% 29.81 in 10.0 mi WNW 8.1 mph - N/A   Clear
3:14 AM 33.8 °F 25.8 °F 28.4 °F 81% 29.82 in 10.0 mi NW 10.4 mph - N/A   Clear
3:33 AM 32.0 °F 24.2 °F 26.6 °F 80% 29.82 in 10.0 mi NW 9.2 mph - N/A   Clear
3:54 AM 30.2 °F 21.9 °F 26.6 °F 86% 29.83 in 10.0 mi NNW 9.2 mph - N/A   Clear
4:13 AM 30.2 °F 20.8 °F 26.6 °F 86% 29.84 in 10.0 mi North 11.5 mph - N/A   Scattered Clouds
4:34 AM 28.4 °F 18.5 °F 24.8 °F 86% 29.84 in 10.0 mi North 11.5 mph - N/A   Scattered Clouds
4:54 AM 26.6 °F 18.2 °F 24.8 °F 93% 29.84 in 10.0 mi North 8.1 mph - N/A   Clear
5:13 AM 26.6 °F 21.2 °F 24.8 °F 93% 29.85 in 10.0 mi North 4.6 mph - N/A   Mostly Cloudy
5:34 AM 24.8 °F 16.9 °F 23.0 °F 93% 29.85 in 7.0 mi North 6.9 mph - N/A   Scattered Clouds
5:54 AM 24.8 °F 15.3 °F 21.2 °F 86% 29.86 in 7.0 mi NNW 9.2 mph - N/A   Clear
6:13 AM 24.8 °F 13.4 °F 23.0 °F 93% 29.87 in 10.0 mi North 12.7 mph - N/A   Mostly Cloudy
6:34 AM 24.8 °F 14.6 °F 21.2 °F 86% 29.87 in 10.0 mi North 10.4 mph - N/A   Mostly Cloudy
6:53 AM 24.8 °F 16.1 °F 21.2 °F 86% 29.88 in 7.0 mi North 8.1 mph - N/A   Overcast
7:14 AM 24.8 °F 14.0 °F 21.2 °F 86% 29.89 in 10.0 mi North 11.5 mph 17.3 mph N/A   Mostly Cloudy
7:33 AM 24.8 °F 14.0 °F 21.2 °F 86% 29.90 in 10.0 mi North 11.5 mph - N/A   Overcast
7:54 AM 23.0 °F 11.7 °F 19.4 °F 86% 29.91 in 10.0 mi North 11.5 mph - N/A   Overcast
8:14 AM 23.0 °F 11.1 °F 19.4 °F 86% 29.92 in 7.0 mi NNW 12.7 mph 16.1 mph N/A   Overcast
8:33 AM 23.0 °F 11.7 °F 19.4 °F 86% 29.93 in 10.0 mi North 11.5 mph - N/A   Overcast
8:54 AM 21.2 °F 8.3 °F 17.6 °F 86% 29.95 in 10.0 mi North 13.8 mph - N/A   Mostly Cloudy
9:14 AM 21.2 °F 10.1 °F 17.6 °F 86% 29.96 in 10.0 mi North 10.4 mph - N/A   Mostly Cloudy
9:33 AM 21.2 °F 8.3 °F 17.6 °F 86% 29.98 in 10.0 mi North 13.8 mph - N/A   Mostly Cloudy
9:54 AM 19.4 °F 3.6 °F 17.6 °F 93% 30.00 in 4.0 mi North 19.6 mph 23.0 mph N/A Snow Light Snow
10:14 AM 19.4 °F 4.1 °F 15.8 °F 86% 30.01 in 1.8 mi North 18.4 mph - N/A Snow Light Snow
10:33 AM 19.4 °F 4.1 °F 15.8 °F 86% 30.02 in 1.5 mi North 18.4 mph - N/A Snow Light Snow
10:53 AM 19.4 °F 4.5 °F 15.8 °F 86% 30.04 in 1.0 mi North 17.3 mph - N/A Snow Light Snow
11:14 AM 17.6 °F 2.2 °F 14.0 °F 86% 30.05 in 1.5 mi NNW 17.3 mph - N/A Snow Light Snow
11:33 AM 17.6 °F 1.3 °F 14.0 °F 86% 30.06 in 1.2 mi NNW 19.6 mph - N/A Snow Light Snow
11:53 AM 19.4 °F 3.6 °F 15.8 °F 86% 30.07 in 1.0 mi North 19.6 mph - N/A Snow Light Snow
12:14 PM 17.6 °F 1.3 °F 14.0 °F 86% 30.09 in 1.0 mi North 19.6 mph - N/A Snow Light Snow
12:33 PM 19.4 °F 4.5 °F 14.0 °F 80% 30.09 in 1.0 mi North 17.3 mph 26.5 mph N/A Snow Light Snow
12:54 PM 17.6 °F 2.2 °F 12.2 °F 79% 30.11 in 1.2 mi North 17.3 mph 25.3 mph N/A Snow Light Snow
1:13 PM 17.6 °F 0.5 °F 12.2 °F 79% 30.13 in 0.8 mi North 21.9 mph 27.6 mph N/A Snow Light Snow
1:34 PM 15.8 °F -1.9 °F 10.4 °F 79% 30.14 in 0.8 mi North 21.9 mph - N/A Snow Light Snow
1:54 PM 15.8 °F -2.7 °F 8.6 °F 73% 30.17 in 0.8 mi North 24.2 mph 31.1 mph N/A Snow Light Snow
2:13 PM 12.2 °F -7.1 °F 8.6 °F 85% 30.19 in 1.0 mi North 23.0 mph - N/A Snow Light Snow
2:34 PM 12.2 °F -7.5 °F 6.8 °F 79% 30.22 in 1.0 mi North 24.2 mph 29.9 mph N/A Snow Light Snow
2:54 PM 10.4 °F -11.7 °F 5.0 °F 79% 30.25 in 0.2 mi North 29.9 mph 34.5 mph N/A Snow Snow
3:13 PM 8.6 °F -13.4 °F 3.2 °F 79% 30.27 in 0.2 mi North 27.6 mph 34.5 mph N/A Snow Snow
3:34 PM 6.8 °F -15.9 °F 1.4 °F 79% 30.30 in 0.2 mi North 27.6 mph 36.8 mph N/A Snow Snow
3:54 PM 6.8 °F -15.1 °F 1.4 °F 79% 30.33 in 0.2 mi NNW 25.3 mph 36.8 mph N/A Snow Snow
4:13 PM 5.0 °F -18.3 °F 1.4 °F 85% 30.35 in 0.2 mi NNW 27.6 mph 35.7 mph N/A Snow Snow
4:34 PM 5.0 °F -17.9 °F -0.4 °F 78% 30.36 in 0.2 mi North 26.5 mph 35.7 mph N/A Snow Light Snow
4:53 PM 3.2 °F -19.5 °F -2.2 °F 78% 30.38 in 0.2 mi North 24.2 mph 38.0 mph N/A Snow Snow
5:14 PM 1.4 °F -22.7 °F -4.0 °F 78% 30.39 in 0.8 mi NNW 26.5 mph 34.5 mph N/A Snow Light Snow
5:34 PM 1.4 °F -21.9 °F -5.8 °F 72% 30.41 in 1.8 mi NNW 24.2 mph 32.2 mph N/A Snow Light Snow
5:53 PM -0.4 °F -22.8 °F -5.8 °F 78% 30.43 in 2.0 mi NNW 20.7 mph 31.1 mph N/A   Haze
6:14 PM -0.4 °F -23.8 °F -7.6 °F 72% 30.44 in 2.0 mi NNW 23.0 mph 29.9 mph N/A Snow Light Snow
6:34 PM -2.2 °F -26.7 °F -7.6 °F 78% 30.46 in 2.5 mi NNW 24.2 mph 33.4 mph N/A   Haze
6:53 PM -2.2 °F -25.7 °F -9.4 °F 71% 30.48 in 4.0 mi NNW 21.9 mph 28.8 mph N/A   Haze
7:14 PM -2.2 °F -25.2 °F -9.4 °F 71% 30.49 in 5.0 mi NNW 20.7 mph 26.5 mph N/A   Haze
7:34 PM -4.0 °F -27.0 °F -11.2 °F 71% 30.50 in 5.0 mi NNW 19.6 mph 31.1 mph N/A   Haze
7:53 PM -5.8 °F -31.0 °F -11.2 °F 77% 30.51 in 7.0 mi NNW 23.0 mph - N/A   Clear
8:14 PM -5.8 °F -28.8 °F -13.0 °F 71% 30.52 in 7.0 mi NNW 18.4 mph 26.5 mph N/A   Clear
8:34 PM -5.8 °F -31.0 °F -13.0 °F 71% 30.53 in 7.0 mi NNW 23.0 mph 26.5 mph N/A   Clear
8:53 PM -5.8 °F -29.9 °F -14.8 °F 65% 30.53 in 10.0 mi NNW 20.7 mph 26.5 mph N/A   Clear
9:14 PM -5.8 °F -29.4 °F -14.8 °F 65% 30.53 in 7.0 mi NNW 19.6 mph - N/A   Clear
9:34 PM -5.8 °F -29.9 °F -14.8 °F 65% 30.53 in 10.0 mi NNW 20.7 mph 25.3 mph N/A   Clear
9:53 PM -7.6 °F -31.1 °F -14.8 °F 71% 30.54 in 10.0 mi NNW 18.4 mph - N/A   Clear
10:14 PM -7.6 °F -30.5 °F -14.8 °F 71% 30.54 in 10.0 mi NNW 17.3 mph - N/A   Clear
10:33 PM -7.6 °F -29.8 °F -14.8 °F 71% 30.55 in 10.0 mi NNW 16.1 mph - N/A   Clear
10:54 PM -7.6 °F -29.8 °F -16.6 °F 65% 30.55 in 10.0 mi NNW 16.1 mph - N/A   Clear
11:14 PM -7.6 °F -27.5 °F -16.6 °F 65% 30.56 in 10.0 mi NNW 12.7 mph - N/A   Clear
11:33 PM -7.6 °F -27.5 °F -16.6 °F 65% 30.56 in 10.0 mi NNW 12.7 mph 16.1 mph N/A   Clear
11:54 PM -7.6 °F -29.1 °F -16.6 °F 65% 30.56 in 10.0 mi NNW 15.0 mph - N/A   Clear